Hourly Data Report for October 23, 2015

All times are specified in Local Standard Time (LST). Add 1 hour to adjust for Daylight Saving Time where and when it is observed.

TORONTO INTL A
ONTARIO

43°40'36.000" N
79°37'50.000" W
173.40 m
6158731
71624
YYZ

Download Data

Hourly Data (October 2015)
Hourly Data Report for October 23, 2015
Temp Definition
°C
Dew Point Temp Definition
°C
Rel Hum Definition
%
Wind Dir Definition
10's deg

Wind Spd Definition
km/h
Visibility Definition
km
Stn Press Definition
kPa
Hmdx Definition


Wind Chill Definition


Weather Definition


TIME
00:00 Legend Double Dagger 6.9 0.6 64 1 21 24.1 100.53     LegendNANA
01:00 Legend Double Dagger 4.9 -1.1 65 2 18 24.1 100.59     Clear
02:00 Legend Double Dagger 3.7 -2.3 65 36 17 24.1 100.66     LegendNANA
03:00 Legend Double Dagger 2.6 -2.9 67 1 16 24.1 100.69     LegendNANA
04:00 Legend Double Dagger 1.9 -3.2 69 35 12 24.1 100.71     Clear
05:00 Legend Double Dagger 1.4 -3.1 72 34 13 24.1 100.76     LegendNANA
06:00 Legend Double Dagger 1.8 -3.3 69 35 17 24.1 100.77     LegendNANA
07:00 Legend Double Dagger 1.0 -3.5 72 36 13 24.1 100.78     Clear
08:00 Legend Double Dagger 2.6 -2.5 69 2 7 24.1 100.83     LegendNANA
09:00 Legend Double Dagger 3.8 -2.4 64 6 5 24.1 100.88     LegendNANA
10:00 Legend Double Dagger 4.8 -2.3 60 34 5 24.1 100.90     Mainly Clear
11:00 Legend Double Dagger 6.0 -1.9 57 27 4 24.1 100.83     LegendNANA
12:00 Legend Double Dagger 7.9 -1.3 52 35 4 24.1 100.78     LegendNANA
13:00 Legend Double Dagger 8.6 -1.8 48 15 12 24.1 100.72     Clear
14:00 Legend Double Dagger 8.6 -1.5 49 16 8 24.1 100.69     LegendNANA
15:00 Legend Double Dagger 8.5 -0.5 53 15 10 24.1 100.66     LegendNANA
16:00 Legend Double Dagger 8.1 -3.1 45 12 16 24.1 100.62     Mainly Clear
17:00 Legend Double Dagger 7.1 -2.9 49 9 10 24.1 100.58     LegendNANA
18:00 Legend Double Dagger 6.3 -2.1 55 13 8 24.1 100.55     LegendNANA
19:00 Legend Double Dagger 5.7 -0.6 64 9 13 24.1 100.51     Mostly Cloudy
20:00 Legend Double Dagger 6.0 0.4 67 8 9 24.1 100.52     LegendNANA
21:00 Legend Double Dagger 6.1 0.7 68 9 10 24.1 100.50     LegendNANA
22:00 Legend Double Dagger 6.5 1.4 70 10 9 24.1 100.42     Mostly Cloudy
23:00 Legend Double Dagger 7.6 2.9 72 11 22 24.1 100.36     LegendNANA

Notes on Data Quality.

Legend

  • E = Estimated
  • M = Missing
  • NA = Not Available
  • ‡ = Partner data that is not subject to review by the National Climate Archives
Date modified: